Weather Roundup
Issued by NWS Chicago, IL

Home | Current Version | Previous Version | Graphics & Text | Print | Product List | Glossary On
Versions: 1 2 3 4 5 6 7 8 9 10 11 12 13 14 15 16 17 18 19 20 21 22 23 24 25 26 27 28 29 30 31 32 33 34 35 36 37 38 39 40 41 42 43 44 45 46 47 48 49 50
000
NZUS59 KLOT 280508
HRRLOT

CHICAGO AREA WEATHER ROUNDUP
NATIONAL WEATHER SERVICE CHICAGO/ROMEOVILLE IL
1200 AM CDT SAT MAR 28 2015

NOTE: "FAIR" INDICATES FEW OR NO CLOUDS BELOW 12,000 FEET WITH NO
SIGNIFICANT WEATHER AND/OR OBSTRUCTIONS TO VISIBILITY.

* THESE STATIONS ARE NOT UNDER NWS QUALITY CONTROL. THEY ALSO MAY NOT
  REPORT WEATHER SUCH AS PRECIPITATION OR FOG.

ILZ005-006-012>014-019>023-280600-
NORTHEAST ILLINOIS

CITY           SKY/WX    TMP DP  RH WIND       PRES   REMARKS
OHARE          PTCLDY    23  14  68 N6        30.21S WCI  16
MIDWAY         PTCLDY    27  14  58 N9        30.22S WCI  18
AURORA         CLEAR     22  13  68 CALM      30.23R
LANSING*       CLEAR     25   6  44 NE13      30.21S WCI  14
JOLIET*        CLEAR     23  15  70 CALM      30.23S
WAUKEGAN       CLEAR     19  13  77 NW3       30.21S
DUPAGE AIRPORT CLEAR     20  12  71 N5        30.21S WCI  13
WHEELING       CLEAR     21  13  71 NW5       30.23S WCI  15
KANKAKEE*      CLEAR     23  17  75 CALM      30.22S
MORRIS*        CLEAR     21  16  79 CALM      30.23S
LEWIS AIRPORT* CLEAR     23  13  66 CALM      30.22S
NORTHERLY IS     N/A     26  10  50 N14         N/A  WCI  15
$$

WIZ051-052-058>065-066-070>072-280600-
SOUTHEAST WISCONSIN

CITY           SKY/WX    TMP DP  RH WIND       PRES   REMARKS
MILWAUKEE      CLEAR     24  11  57 NE6       30.22S WCI  17
KENOSHA*       CLEAR     17  12  80 NW3       30.22S
RACINE*        CLEAR     24  12  60 NE7       30.23S WCI  16
BURLINGTON     CLEAR     15  11  87 CALM      30.22R
WAUKESHA       CLEAR     18  12  79 CALM      30.22R
WEST BEND      CLEAR     18  12  79 CALM      30.22R
$$

INZ001>003-010>013-019-020-280600-
NORTHWEST INDIANA

CITY           SKY/WX    TMP DP  RH WIND       PRES   REMARKS
GARY*          CLEAR     28   5  37 N13G21    30.22S WCI  17
MICHIGAN CITY* NOT AVBL
RENSSELAER*    NOT AVBL
VALPARAISO     CLEAR     21  12  68 N7        30.20R WCI  12
$$

LMZ740>746-280600-
SOUTHERN LAKE MICHIGAN

STATION/POSITION TIME  SKY/WX   TEMP WIND        PRES    VSBY
                                AIR  DIR/SP/G
                 (UTC)          (F)  (DEG/KT/KT) (MB)    (MI)
HARRISON CRIB    0400            27   10/ 18/ 24   N/A
BURNHAM HARBOR   0500            26  350/ 12/ 17   N/A
CALUMET HARBOR   0400            27  350/ 13/ 18 1022.0R
BURNS HARBOR     0400            26   20/ 20/ 24 1023.0R
MICHIGAN CITY    0400            24  360/ 21/ 24   N/A
$$

ABBREVIATIONS USED IN REMARKS
   TC - TEMPERATURE IN CELSIUS
  WCI - WIND CHILL INDEX
   HX - HEAT INDEX
  VSB - VISIBILITY
$$



USA.gov is the U.S. government's official web portal to all federal, state and local government web resources and services.